Погода в Покровском

Россия / Свердловская область     56°28′07″N   61°37′02″E
темп.,
°C
ветер,
м/с
пор.,
м/с
влажн.,
%
обл.,
%
осадки,
мм/ч
давл.,
гПа
погр.,
м
9 мая, вс
вс923:00+14сз2253100 0.0 101624
02:00+12с3673100 0.0 1015120
05:00+12ссв2373100 0.0 101654
08:00+16с1148100 0.0 1016147
11:00+20св3332100 0.0 1016916
14:00+22всв4527100 0.0 10152993
17:00+21вюв4529100 0.0 10161837
20:00+17св2248100 0.0 101825
10 мая, пн
пн1023:00+14ююз2359100 0.0 101958
02:00+13с226499 0.0 102020
05:00+11всв386611 0.0 1022152
08:00+14в465127 0.0 1023429
11:00+17всв5638100 0.0 10231118
14:00+20всв5629100 0.0 10241670
17:00+20в452719 0.0 10241859
20:00+16вюв36403 0.0 1025128
11 мая, вт
вт1123:00+12юв22450 0.0 102613
02:00+10ююв225019 0.0 102711
05:00+9ююз11557 0.0 102810
08:00+14ююз224297 0.0 1028241
11:00+18ююз2230100 0.0 10291215
14:00+20юз2226100 0.0 10281464
17:00+20з2227100 0.0 10281465
20:00+17юз11385 0.0 102811
12 мая, ср
ср1223:00+13юз334722 0.0 102937
02:00+12зсз355316 0.0 102979
05:00+11ссз3585100 0.0 103094
08:00+15ссз466599 0.0 1030420
11:00+19ссз453933 0.0 10291099
14:00+21с4536100 0.0 10291805
17:00+22с453718 0.0 10282110
20:00+19с2249100 0.0 102811
13 мая, чт
чт1323:00+16сз335780 0.0 102831
02:00+13ссз22705 0.0 102928
05:00+12сз347775 0.0 102958
08:00+17сз355973 0.0 1029316
11:00+22сз464239 0.0 10281652
14:00+25ссз563146 0.0 10262258
17:00+26с46295 0.0 10262438
20:00+22с344411 0.0 102762